This demonstration page uses our WeatherBlox Daily Observations layout. Learn more.

Left ArrowRight Arrow

53.62937, 11.41316

Hourly Observations for November 5, 2020

Temp ( °F °C ) Dew Point ( °F °C ) Humidity (%) Winds ( mph kmh ) Pressure ( in mb ) Visibility ( mi km ) Precip ( " mm )
6:20 am 06:20 Mostly Clear 41 5 41 5 100 100 SSW 5 7 30.54 1034 30 48 N/A
6:50 am 06:50 Mostly Clear 41 5 41 5 100 100 SW 3 6 30.54 1034 30 48 N/A
7:20 am 07:20 Mostly Clear 41 5 41 5 100 100 SSW 3 6 30.57 1035 30 48 N/A
7:50 am 07:50 Mostly Sunny 41 5 41 5 100 100 SSW 6 9 30.57 1035 7 11 N/A
8:20 am 08:20 Mostly Sunny 41 5 41 5 100 100 SSW 5 7 30.57 1035 7 11 N/A
8:50 am 08:50 Mostly Sunny 43 6 41 5 93 93 S 6 9 30.57 1035 30 48 N/A
9:20 am 09:20 Mostly Sunny 45 7 43 6 93 93 SSW 8 13 30.57 1035 30 48 N/A
9:50 am 09:50 Mostly Sunny 46 8 43 6 87 87 SSW 9 15 30.57 1035 7 11 N/A
10:20 am 10:20 Mostly Sunny 46 8 43 6 87 87 SSW 10 17 30.57 1035 7 11 N/A
10:50 am 10:50 Mostly Sunny 48 9 43 6 82 82 SSW 12 19 30.56 1035 7 11 N/A
11:20 am 11:20 Mostly Sunny 50 10 43 6 76 76 SW 14 22 30.56 1035 30 48 N/A
11:50 am 11:50 Mostly Sunny 52 11 43 6 72 72 SW 13 20 30.56 1035 7 11 N/A
12:20 pm 12:20 Mostly Sunny 52 11 43 6 72 72 SW 16 26 30.56 1035 30 48 N/A
12:50 pm 12:50 Mostly Sunny 52 11 43 6 72 72 SW 13 20 30.53 1034 30 48 N/A
1:20 pm 13:20 Mostly Sunny 52 11 45 7 77 77 SW 14 22 30.53 1034 30 48 N/A
1:50 pm 13:50 Mostly Sunny 52 11 43 6 72 72 SW 13 20 30.53 1034 30 48 N/A
2:20 pm 14:20 Partly Cloudy 52 11 43 6 72 72 SW 13 20 30.53 1034 30 48 N/A
2:50 pm 14:50 Mostly Cloudy 52 11 43 6 72 72 SW 14 22 30.53 1034 30 48 N/A
3:20 pm 15:20 Mostly Cloudy 52 11 43 6 72 72 SW 14 22 30.53 1034 30 48 N/A
3:50 pm 15:50 Mostly Cloudy 52 11 43 6 72 72 SW 13 20 30.53 1034 30 48 N/A
4:20 pm 16:20 Mostly Cloudy 52 11 45 7 77 77 SW 13 20 30.51 1033 30 48 N/A
4:50 pm 16:50 Mostly Cloudy 50 10 45 7 82 82 SW 13 20 30.51 1033 30 48 N/A
5:20 pm 17:20 Mostly Cloudy 50 10 45 7 82 82 SW 12 19 30.54 1034 30 48 N/A
5:50 pm 17:50 Mostly Cloudy 50 10 45 7 82 82 SW 12 19 30.51 1033 30 48 N/A
6:20 pm 18:20 Mostly Cloudy 50 10 45 7 82 82 SW 10 17 30.54 1034 30 48 N/A
6:50 pm 18:50 Mostly Cloudy 50 10 45 7 82 82 SW 10 17 30.54 1034 30 48 N/A
7:20 pm 19:20 Mostly Cloudy 50 10 45 7 82 82 SW 9 15 30.54 1034 30 48 N/A
7:50 pm 19:50 Mostly Cloudy 50 10 45 7 82 82 SW 10 17 30.51 1033 30 48 N/A
8:20 pm 20:20 Mostly Cloudy 50 10 45 7 82 82 SW 10 17 30.54 1034 30 48 N/A
8:50 pm 20:50 Mostly Cloudy 50 10 46 8 88 88 SW 10 17 30.51 1033 30 48 N/A
9:20 pm 21:20 Mostly Cloudy 50 10 46 8 88 88 SW 12 19 30.54 1034 30 48 N/A
9:50 pm 21:50 Mostly Cloudy 50 10 46 8 88 88 SW 10 17 30.54 1034 30 48 N/A

Powered by AerisWeather